Terug naar catalogus

COMSATBW-1

ActiefMilitairGEO
NORAD 35943·PAYLOAD·🇩🇪 Germany

Gelanceerd Sep 30, 2009 vanaf Guiana Space Centre

Loading…

TLE

VersSource: Space-Track

Epoch: Sep 14, 2026, 14:06 UTC

1 35943U 09054B   26257.58758106  .00000017  00000-0  00000-0 0  9992
2 35943   0.0230 178.7524 0002947   0.4789  88.8715  1.00270562 62205

Volg COMSATBW-1 in realtime met AllMySat

Download on the App Store